| time (UTC) | temp C | wind direction | speed KPH | gust KPH | rain 1hr cm | rain 24hr cm | rain mn cm | humidity % | barometer mb |
| 20260508171527 | 18 | 303 | 0.0 | 9.7 | 0.00 | 0.00 | 0.00 | 43 | 1012.0 |
| 20260508170021 | 18 | 289 | 1.6 | 11.3 | 0.00 | 0.00 | 0.00 | 44 | 1012.1 |
| 20260508164517 | 17 | 281 | 0.0 | 3.2 | 0.00 | 0.00 | 0.00 | 48 | 1012.3 |
| 20260508163013 | 16 | 197 | 0.0 | 0.0 | 0.00 | 0.00 | 0.00 | 51 | 1012.4 |
| 20260508161511 | 16 | 123 | 0.0 | 3.2 | 0.00 | 0.00 | 0.00 | 53 | 1012.6 |
| 20260508160012 | 15 | 148 | 1.6 | 4.8 | 0.00 | 0.00 | 0.00 | 58 | 1012.7 |
| 20260508154504 | 13 | 113 | 3.2 | 4.8 | 0.00 | 0.00 | 0.00 | 62 | 1012.8 |
| 20260508153003 | 13 | 168 | 1.6 | 3.2 | 0.00 | 0.00 | 0.00 | 61 | 1013.0 |
| 20260508151602 | 13 | 198 | 1.6 | 3.2 | 0.00 | 0.00 | 0.00 | 63 | 1013.0 |
| 20260508150054 | 11 | 202 | 1.6 | 3.2 | 0.00 | 0.00 | 0.00 | 70 | 1013.1 |
| 20260508144554 | 10 | 231 | 0.0 | 3.2 | 0.00 | 0.00 | 0.00 | 74 | 1013.3 |
| 20260508143057 | 10 | 255 | 3.2 | 6.4 | 0.00 | 0.00 | 0.00 | 76 | 1013.4 |
| 20260508141552 | 9 | 223 | 1.6 | 4.8 | 0.00 | 0.00 | 0.00 | 76 | 1013.4 |
| 20260508140056 | 8 | 246 | 1.6 | 6.4 | 0.00 | 0.00 | 0.00 | 80 | 1013.6 |
| 20260508134553 | 7 | 273 | 3.2 | 8.0 | 0.00 | 0.00 | 0.00 | 83 | 1013.6 |
| 20260508133055 | 6 | 278 | 3.2 | 11.3 | 0.00 | 0.00 | 0.00 | 84 | 1013.6 |
| 20260508131549 | 6 | 272 | 3.2 | 9.7 | 0.00 | 0.00 | 0.00 | 84 | 1013.6 |
| 20260508130100 | 6 | 283 | 1.6 | 3.2 | 0.00 | 0.00 | 0.00 | 87 | 1013.6 |
| 20260508124549 | 6 | 275 | 1.6 | 4.8 | 0.00 | 0.00 | 0.00 | 87 | 1013.4 |
| 20260508123053 | 5 | 274 | 1.6 | 9.7 | 0.00 | 0.00 | 0.00 | 87 | 1013.4 |
| 20260508121543 | 6 | 256 | 1.6 | 4.8 | 0.00 | 0.00 | 0.00 | 86 | 1013.5 |
| 20260508120038 | 6 | 259 | 0.0 | 0.0 | 0.00 | 0.00 | 0.00 | 88 | 1013.4 |
| 20260508114545 | 6 | 259 | 0.0 | 0.0 | 0.00 | 0.00 | 0.00 | 87 | 1013.4 |
| 20260508113033 | 6 | 259 | 0.0 | 3.2 | 0.00 | 0.00 | 0.00 | 85 | 1013.5 |
| 20260508111532 | 6 | 58 | 0.0 | 0.0 | 0.00 | 0.00 | 0.00 | 83 | 1013.5 |
| 20260508110036 | 6 | 58 | 0.0 | 1.6 | 0.00 | 0.00 | 0.00 | 83 | 1013.5 |
| 20260508104529 | 6 | 58 | 0.0 | 3.2 | 0.00 | 0.00 | 0.00 | 82 | 1013.5 |
| 20260508103037 | 6 | 58 | 0.0 | 3.2 | 0.00 | 0.00 | 0.00 | 83 | 1013.5 |
| 20260508101527 | 6 | 290 | 0.0 | 1.6 | 0.00 | 0.00 | 0.00 | 82 | 1013.5 |
| 20260508100025 | 6 | 295 | 0.0 | 4.8 | 0.00 | 0.00 | 0.00 | 83 | 1013.6 |
| 20260508094539 | 6 | 319 | 1.6 | 6.4 | 0.00 | 0.00 | 0.00 | 81 | 1013.4 |
| 20260508093025 | 6 | 353 | 0.0 | 3.2 | 0.00 | 0.00 | 0.00 | 81 | 1013.3 |
| 20260508091538 | 7 | 357 | 1.6 | 4.8 | 0.00 | 0.00 | 0.00 | 79 | 1013.5 |
| 20260508090016 | 7 | 353 | 0.0 | 8.0 | 0.00 | 0.00 | 0.00 | 78 | 1013.5 |
| 20260508084512 | 7 | 347 | 4.8 | 11.3 | 0.00 | 0.00 | 0.00 | 77 | 1013.5 |
| 20260508083008 | 8 | 354 | 9.7 | 14.5 | 0.00 | 0.00 | 0.00 | 73 | 1013.3 |
| 20260508081521 | 9 | 8 | 8.0 | 16.1 | 0.00 | 0.00 | 0.00 | 66 | 1013.3 |
| 20260508080004 | 9 | 356 | 6.4 | 11.3 | 0.00 | 0.00 | 0.00 | 66 | 1013.4 |
| 20260508074500 | 9 | 359 | 4.8 | 11.3 | 0.00 | 0.00 | 0.00 | 70 | 1013.4 |
| 20260508073108 | 9 | 359 | 4.8 | 12.9 | 0.00 | 0.00 | 0.00 | 71 | 1013.5 |
| 20260508071622 | 9 | 353 | 3.2 | 6.4 | 0.00 | 0.00 | 0.00 | 71 | 1013.4 |
| 20260508070101 | 10 | 326 | 1.6 | 8.0 | 0.00 | 0.00 | 0.00 | 69 | 1013.5 |
| 20260508064552 | 10 | 1 | 1.6 | 6.4 | 0.00 | 0.00 | 0.00 | 73 | 1013.3 |
| 20260508063048 | 10 | 11 | 3.2 | 6.4 | 0.00 | 0.00 | 0.00 | 68 | 1013.2 |
| 20260508061547 | 11 | 341 | 4.8 | 9.7 | 0.00 | 0.00 | 0.00 | 63 | 1013.1 |
| 20260508060043 | 11 | 278 | 0.0 | 8.0 | 0.00 | 0.00 | 0.00 | 64 | 1013.1 |
| 20260508054547 | 11 | 233 | 0.0 | 4.8 | 0.00 | 0.00 | 0.00 | 67 | 1013.1 |
| 20260508053044 | 12 | 356 | 6.4 | 11.3 | 0.00 | 0.00 | 0.00 | 60 | 1012.9 |
| 20260508051542 | 12 | 2 | 0.0 | 0.0 | 0.00 | 0.00 | 0.00 | 62 | 1012.9 |
| 20260508050036 | 12 | 14 | 0.0 | 0.0 | 0.00 | 0.00 | 0.00 | 57 | 1012.9 |
| 20260508044536 | 12 | 13 | 0.0 | 0.0 | 0.00 | 0.00 | 0.00 | 54 | 1012.9 |
| 20260508043035 | 13 | 347 | 0.0 | 0.0 | 0.00 | 0.00 | 0.00 | 52 | 1012.9 |
| 20260508041537 | 14 | 318 | 0.0 | 0.0 | 0.00 | 0.00 | 0.00 | 48 | 1012.9 |
| 20260508040037 | 13 | 6 | 0.0 | 0.0 | 0.00 | 0.00 | 0.00 | 55 | 1013.0 |
| 20260508034538 | 13 | 8 | 0.0 | 0.0 | 0.00 | 0.00 | 0.00 | 52 | 1013.0 |
| 20260508033043 | 14 | 356 | 0.0 | 0.0 | 0.00 | 0.00 | 0.00 | 53 | 1012.9 |
| 20260508031537 | 15 | 297 | 0.0 | 0.0 | 0.00 | 0.00 | 0.00 | 50 | 1012.8 |
| 20260508030035 | 15 | 297 | 0.0 | 0.0 | 0.00 | 0.00 | 0.00 | 44 | 1012.7 |
| 20260508024535 | 15 | 335 | 0.0 | 0.0 | 0.00 | 0.00 | 0.00 | 47 | 1012.9 |
| 20260508023037 | 15 | 336 | 0.0 | 0.0 | 0.00 | 0.00 | 0.00 | 48 | 1012.3 |
| 20260508021531 | 15 | 319 | 3.2 | 6.4 | 0.00 | 0.00 | 0.00 | 48 | 1012.0 |
| 20260508020030 | 16 | 311 | 3.2 | 6.4 | 0.00 | 0.00 | 0.00 | 42 | 1011.9 |
| 20260508014529 | 17 | 322 | 1.6 | 3.2 | 0.00 | 0.00 | 0.00 | 41 | 1011.8 |
| 20260508013029 | 17 | 328 | 1.6 | 4.8 | 0.00 | 0.00 | 0.00 | 41 | 1011.8 |
| 20260508011529 | 18 | 314 | 4.8 | 9.7 | 0.00 | 0.00 | 0.00 | 37 | 1011.7 |
| 20260508010031 | 18 | 341 | 6.4 | 12.9 | 0.00 | 0.00 | 0.00 | 40 | 1011.8 |
| 20260508004528 | 19 | 327 | 9.7 | 14.5 | 0.00 | 0.00 | 0.00 | 38 | 1011.8 |
| 20260508003025 | 19 | 321 | 8.0 | 16.1 | 0.00 | 0.00 | 0.00 | 40 | 1011.7 |
| 20260508001539 | 18 | 298 | 14.5 | 19.3 | 0.00 | 0.00 | 0.00 | 39 | 1011.7 |
| 20260508000022 | 18 | 338 | 11.3 | 27.4 | 0.00 | 0.00 | 0.00 | 43 | 1011.8 |
| 20260507234520 | 18 | 300 | 24.1 | 35.4 | 0.00 | 0.00 | 0.00 | 44 | 1011.7 |
| 20260507233025 | 18 | 285 | 12.9 | 19.3 | 0.00 | 0.00 | 0.00 | 38 | 1011.6 |
| 20260507231522 | 18 | 288 | 11.3 | 16.1 | 0.00 | 0.00 | 0.00 | 37 | 1011.6 |
| 20260507230027 | 18 | 270 | 8.0 | 11.3 | 0.00 | 0.00 | 0.00 | 38 | 1011.6 |
| 20260507224527 | 18 | 282 | 11.3 | 17.7 | 0.00 | 0.00 | 0.00 | 36 | 1011.7 |
| 20260507223017 | 18 | 267 | 11.3 | 25.7 | 0.00 | 0.00 | 0.00 | 41 | 1011.8 |
| 20260507221523 | 18 | 296 | 22.5 | 33.8 | 0.00 | 0.00 | 0.00 | 37 | 1011.8 |
| 20260507220018 | 18 | 272 | 9.7 | 16.1 | 0.00 | 0.00 | 0.00 | 37 | 1011.9 |
| 20260507214515 | 18 | 276 | 12.9 | 20.9 | 0.00 | 0.00 | 0.00 | 38 | 1012.0 |
| 20260507213015 | 19 | 264 | 20.9 | 32.2 | 0.00 | 0.00 | 0.00 | 34 | 1012.1 |
| 20260507211528 | 18 | 283 | 9.7 | 20.9 | 0.00 | 0.00 | 0.00 | 37 | 1012.2 |
| 20260507210014 | 20 | 290 | 12.9 | 20.9 | 0.00 | 0.00 | 0.00 | 32 | 1012.2 |
| 20260507204512 | 19 | 277 | 11.3 | 16.1 | 0.00 | 0.00 | 0.00 | 33 | 1012.4 |
| 20260507203011 | 18 | 31 | 4.8 | 12.9 | 0.00 | 0.00 | 0.00 | 33 | 1012.4 |
| 20260507201516 | 18 | 335 | 8.0 | 14.5 | 0.00 | 0.00 | 0.00 | 36 | 1012.4 |
| 20260507200012 | 18 | 340 | 6.4 | 14.5 | 0.00 | 0.00 | 0.00 | 35 | 1012.4 |
| 20260507194509 | 19 | 292 | 12.9 | 27.4 | 0.00 | 0.00 | 0.00 | 32 | 1012.3 |
| 20260507193008 | 19 | 292 | 14.5 | 25.7 | 0.00 | 0.00 | 0.00 | 32 | 1012.2 |
| 20260507191507 | 20 | 340 | 12.9 | 19.3 | 0.00 | 0.00 | 0.00 | 31 | 1012.2 |
| 20260507190006 | 18 | 317 | 8.0 | 12.9 | 0.00 | 0.00 | 0.00 | 35 | 1012.2 |
| 20260507184505 | 18 | 293 | 8.0 | 14.5 | 0.00 | 0.00 | 0.00 | 34 | 1012.3 |
| 20260507183005 | 18 | 277 | 9.7 | 16.1 | 0.00 | 0.00 | 0.00 | 33 | 1012.4 |
| 20260507181504 | 19 | 333 | 9.7 | 16.1 | 0.00 | 0.00 | 0.00 | 33 | 1012.5 |
| 20260507180003 | 19 | 338 | 9.7 | 16.1 | 0.00 | 0.00 | 0.00 | 32 | 1012.6 |
| 20260507174603 | 18 | 295 | 6.4 | 16.1 | 0.00 | 0.00 | 0.00 | 33 | 1012.8 |
| 20260507173106 | 18 | 340 | 11.3 | 16.1 | 0.00 | 0.00 | 0.00 | 35 | 1013.0 |